1495814400.67,31642,16.19,73830.5,0.07,-1.67,-1.67,0,*78
1495814401.93,31643,16.13,73824.5,0.07,-1.47,-1.47,0,*79
1495814403.19,31644,16.13,73826.8,0.07,-1.47,-1.47,0,*7E
1495814404.46,31645,16.13,73828.8,0.07,-1.39,-1.39,0,*7F
1495814405.66,31646,16.13,73824.5,0.07,-1.25,-1.29,0,*70
1495814406.92,31647,16.13,73824.3,0.07,-1.35,-1.35,0,*7D
1495814408.09,31648,16.13,73824.0,0.09,-1.63,-1.67,0,*78
1495814409.3,31649,16.13,73826.0,0.07,-1.67,-1.55,0,*72
1495814410.5,31650,16.13,73822.5,0.07,-1.67,-1.67,0,*7B
1495814411.67,31651,16.13,73820.8,0.05,-1.55,-1.59,0,*74
1495814412.84,31652,16.13,73822.8,0.05,-1.59,-1.59,0,*7B
1495814414.07,31653,16.13,73822.0,0.05,-1.43,-1.39,0,*77
1495814415.27,31654,16.13,73818.8,0.05,-1.39,-1.33,0,*77
1495814416.51,31655,16.13,73818.3,0.05,-1.39,-1.39,0,*7C
1495814417.68,31656,16.13,73816.5,0.05,-1.33,-1.33,0,*7F
1495814418.86,31657,16.13,73816.5,0.05,-1.29,-1.33,0,*75
1495814420.06,31658,16.13,73818.0,0.07,-1.25,-1.29,0,*7F
1495814421.27,31659,16.13,73814.8,0.07,-1.25,-1.29,0,*7E
1495814422.51,31660,16.13,73812.5,0.07,-1.29,-1.35,0,*75
1495814423.71,31661,16.13,73818.3,0.07,-1.29,-1.29,0,*79
1495814424.9,31662,16.13,73812.3,0.05,-1.17,-1.21,0,*7D
1495814426.08,31663,16.13,73816.5,0.05,-1.17,-1.21,0,*7C
1495814427.31,31664,16.13,73826.8,0.07,-1.13,-1.17,0,*78
1495814428.55,31665,16.13,73824.0,0.07,-1.17,-1.35,0,*7D
1495814429.75,31666,16.13,73816.0,0.07,-1.51,-1.51,0,*7E
1495814430.96,31667,16.13,73816.5,0.07,-1.67,-1.79,0,*70
1495814432.22,31668,16.13,73814.8,0.07,-1.39,-1.47,0,*79
1495814433.46,31669,16.13,73812.0,0.07,-1.39,-1.51,0,*7F
1495814434.72,31670,16.19,73822.5,0.07,-1.39,-1.39,0,*79
1495814435.98,31671,16.13,73824.0,0.07,-1.39,-1.35,0,*74
1495814437.24,31672,16.13,73826.3,0.07,-1.35,-1.35,0,*7B
1495814438.5,31673,16.13,73818.5,0.07,-1.39,-1.47,0,*73
1495814439.73,31674,16.13,73818.3,0.09,-1.47,-1.39,0,*7A
1495814440.96,31675,16.13,73822.8,0.09,-1.39,-1.47,0,*7B
1495814442.22,31676,16.13,73828.0,0.07,-1.39,-1.39,0,*7F
1495814443.46,31677,16.13,73824.5,0.07,-1.29,-1.39,0,*7F
1495814444.67,31678,16.13,73830.0,0.07,-1.29,-1.29,0,*71
1495814445.92,31679,16.13,73824.3,0.07,-1.35,-1.47,0,*75
1495814447.12,31680,16.13,73822.3,0.07,-1.51,-1.55,0,*72
1495814448.35,31681,16.13,73820.8,0.07,-1.35,-1.29,0,*7A
1495814449.53,31682,16.13,73822.8,0.09,-1.17,-1.25,0,*7B
1495814450.76,31683,16.13,73818.3,0.07,-1.13,-1.17,0,*71
1495814451.98,31684,16.13,73816.3,0.09,-1.35,-1.35,0,*7C
1495814453.21,31685,16.13,73816.3,0.09,-1.35,-1.35,0,*7D
1495814454.47,31686,16.13,73820.3,0.07,-1.35,-1.35,0,*70
1495814455.64,31687,16.13,73816.8,0.09,-1.29,-1.29,0,*7F
1495814456.9,31688,16.13,73810.5,0.07,-1.35,-1.35,0,*7E
1495814458.16,31689,16.13,73808.0,0.07,-1.39,-1.35,0,*73
1495814459.37,31690,16.13,73800.5,0.07,-1.25,-1.17,0,*76
1495814460.55,31691,16.13,73800.0,0.09,-1.17,-1.17,0,*78
1495814461.73,31692,16.13,73798.8,0.09,-1.17,-1.25,0,*7A
1495814462.9,31693,16.13,73796.8,0.09,-1.25,-1.29,0,*76
1495814464.13,31694,16.13,73796.0,0.09,-1.05,-1.05,0,*7D
1495814465.36,31695,16.13,73802.8,0.09,-1.05,-1.05,0,*7C
1495814466.56,31696,16.13,73802.3,0.09,-1.13,-1.25,0,*7A
1495814467.73,31697,16.13,73798.3,0.09,-1.25,-1.29,0,*72
1495814468.91,31698,16.13,73808.3,0.09,-1.17,-1.25,0,*70
1495814470.16,31699,16.13,73800.8,0.11,-1.01,-1.13,0,*4A
1495814471.39,31700,16.13,73808.8,0.11,-1.13,-1.25,0,*4D
1495814472.59,31701,16.13,73814.3,0.11,-1.25,-1.33,0,*4E
1495814473.83,31702,16.13,73810.0,0.11,-1.33,-1.35,0,*4C
1495814475.06,31703,16.13,73808.5,0.11,-1.33,-1.35,0,*4D
1495814476.27,31704,16.13,73804.8,0.13,-1.21,-1.25,0,*4A
1495814477.51,31705,16.13,73810.8,0.11,-1.33,-1.35,0,*4B
1495814478.72,31706,16.13,73808.5,0.11,-1.25,-1.21,0,*4A
1495814479.92,31707,16.13,73808.3,0.11,-1.33,-1.25,0,*48
1495814481.13,31708,16.13,73814.8,0.11,-1.21,-1.21,0,*40
1495814482.36,31709,16.13,73816.3,0.09,-1.35,-1.35,0,*78
1495814483.62,31710,16.13,73816.5,0.11,-1.43,-1.43,0,*49
1495814484.87,31711,16.13,73816.3,0.11,-1.43,-1.35,0,*49
1495814486.11,31712,16.13,73814.0,0.09,-1.39,-1.39,0,*72
1495814487.28,31713,16.13,73814.0,0.09,-1.29,-1.29,0,*73
1495814488.46,31714,16.13,73824.8,0.09,-1.29,-1.25,0,*78
1495814489.66,31715,16.13,73816.5,0.11,-1.25,-1.25,0,*4C
1495814490.87,31716,16.13,73816.3,0.11,-1.33,-1.33,0,*4F
1495814492.07,31717,16.13,73816.5,0.11,-1.25,-1.33,0,*49
1495814493.28,31718,16.13,73818.3,0.11,-1.21,-1.21,0,*41
1495814494.49,31719,16.13,73814.0,0.11,-1.21,-1.21,0,*40
1495814495.7,31720,16.13,73810.0,0.13,-1.33,-1.33,0,*48
1495814496.91,31721,16.13,73814.8,0.11,-1.33,-1.33,0,*4B
1495814498.12,31722,16.13,73812.3,0.13,-1.21,-1.25,0,*4E
1495814499.38,31723,16.13,73818.5,0.13,-1.01,-1.09,0,*43
1495814500.64,31724,16.13,73812.0,0.13,-1.09,-1.09,0,*4C
1495814501.84,31725,16.13,73812.3,0.11,-1.33,-1.33,0,*4F
1495814503.1,31726,16.13,73812.3,0.11,-1.43,-1.47,0,*48
1495814504.36,31727,16.13,73812.0,0.11,-1.43,-1.43,0,*4D
1495814505.61,31728,16.13,73812.3,0.11,-1.35,-1.35,0,*42
1495814506.88,31729,16.13,73812.0,0.13,-1.35,-1.35,0,*41
1495814508.11,31730,16.13,73812.8,0.11,-1.33,-1.35,0,*4D
1495814509.36,31731,16.13,73808.3,0.11,-1.13,-1.13,0,*4A
1495814510.57,31732,16.13,73808.5,0.13,-1.21,-1.25,0,*4F
1495814511.79,31733,16.13,73814.5,0.13,-1.21,-1.21,0,*4A
1495814513.03,31734,16.13,73818.0,0.13,-1.13,-1.21,0,*4C
1495814514.24,31735,16.13,73818.0,0.13,-1.21,-1.33,0,*4F
1495814515.44,31736,16.13,73816.5,0.11,-1.25,-1.25,0,*4D
1495814516.69,31737,16.13,73818.3,0.11,-1.13,-1.13,0,*4C
1495814517.91,31738,16.13,73818.3,0.13,-1.33,-1.33,0,*41
1495814519.15,31739,16.13,73818.8,0.13,-1.33,-1.35,0,*46
1495814520.39,31740,16.13,73820.3,0.13,-1.33,-1.35,0,*48
1495814521.6,31741,16.13,73818.0,0.13,-1.33,-1.25,0,*48
1495814522.87,31742,16.13,73818.8,0.13,-1.47,-1.43,0,*48
1495814524.13,31743,16.13,73822.3,0.13,-1.35,-1.35,0,*4D
1495814525.39,31744,16.13,73822.0,0.13,-1.43,-1.47,0,*4E
1495814526.6,31745,16.13,73816.8,0.13,-1.59,-1.51,0,*43
1495814527.84,31746,16.13,73818.0,0.13,-1.33,-1.35,0,*4E
1495814529.1,31747,16.13,73812.3,0.13,-1.35,-1.35,0,*49
1495814530.32,31748,16.13,73814.0,0.13,-1.33,-1.33,0,*46
1495814531.55,31749,16.13,73818.8,0.13,-1.25,-1.13,0,*42
1495814532.76,31750,16.13,73822.8,0.13,-1.21,-1.33,0,*4C
1495814533.97,31751,16.13,73812.5,0.13,-1.33,-1.33,0,*4E
1495814535.17,31752,16.13,73816.0,0.11,-1.25,-1.25,0,*4F
1495814536.41,31753,16.13,73814.8,0.13,-1.21,-1.13,0,*4D
1495814537.62,31754,16.13,73816.0,0.13,-1.21,-1.33,0,*48
1495814538.83,31755,16.13,73820.5,0.13,-1.33,-1.25,0,*4D
1495814540.04,31756,16.13,73818.8,0.13,-1.25,-1.33,0,*4E
1495814541.25,31757,16.13,73816.5,0.13,-1.33,-1.25,0,*4F
1495814542.46,31758,16.13,73818.8,0.13,-1.33,-1.33,0,*47
1495814543.72,31759,16.13,73816.0,0.11,-1.35,-1.43,0,*45
1495814544.98,31760,16.13,73822.0,0.13,-1.35,-1.35,0,*4C
1495814546.24,31761,16.13,73818.5,0.13,-1.35,-1.43,0,*4C
1495814547.45,31762,16.13,73822.5,0.13,-1.25,-1.25,0,*4E
1495814548.66,31763,16.13,73820.8,0.13,-1.25,-1.33,0,*48
1495814549.86,31764,16.13,73824.8,0.13,-1.25,-1.25,0,*48
1495814551.07,31765,16.13,73824.5,0.13,-1.21,-1.25,0,*4D
1495814552.28,31766,16.13,73824.3,0.13,-1.25,-1.25,0,*4A
1495814553.55,31767,16.13,73822.3,0.13,-1.43,-1.43,0,*4B
1495814554.75,31768,16.13,73828.0,0.13,-1.25,-1.33,0,*43
1495814556.02,31769,16.13,73826.0,0.13,-1.43,-1.43,0,*45
1495814557.24,31770,16.13,73814.5,0.15,-1.33,-1.39,0,*41
1495814558.42,31771,16.13,73818.0,0.15,-1.33,-1.33,0,*4A
1495814559.64,31772,16.13,73818.3,0.15,-1.33,-1.39,0,*43
1495814560.82,31773,16.13,73814.3,0.15,-1.33,-1.33,0,*48
1495814562.01,31774,16.13,73818.8,0.15,-1.21,-1.33,0,*4C
1495814563.19,31775,16.13,73812.8,0.15,-1.59,-1.67,0,*43
1495814564.45,31776,16.13,73812.8,0.17,-1.43,-1.47,0,*4B
1495814565.64,31777,16.13,73814.8,0.15,-1.55,-1.71,0,*4A
1495814566.88,31778,16.13,73822.8,0.15,-1.47,-1.47,0,*43
1495814568.07,31779,16.13,73828.5,0.15,-2.15,-2.35,0,*40
1495814569.32,31780,16.13,73826.8,0.13,-2.59,-2.59,0,*42
1495814570.59,31781,16.13,73816.3,0.13,-2.63,-2.63,0,*43
1495814571.85,31782,16.13,73822.0,0.11,-2.71,-2.63,0,*41
1495814573.07,31783,16.13,73818.3,0.09,-3.55,-3.55,0,*7A
1495814574.24,31784,16.13,73814.5,0.09,-3.19,-3.19,0,*7D
1495814575.5,31785,16.13,73812.3,0.07,-2.51,-2.51,0,*72
1495814576.71,31786,16.13,73812.8,0.07,-2.31,-2.39,0,*79
1495814577.91,31787,16.13,73812.5,0.07,-2.31,-2.23,0,*73
1495814579.09,31788,16.13,73814.8,0.05,-2.15,-2.15,0,*7D
1495814580.31,31789,16.13,73814.0,0.01,-2.07,-1.95,0,*70
1495814581.51,31790,16.13,73814.8,0.05,-2.15,-2.07,0,*77
1495814582.74,31791,16.13,73818.0,0.01,-1.87,-1.87,0,*71
1495814583.93,31792,16.13,73816.0,0.05,-1.71,-1.67,0,*71
1495814585.11,31793,16.13,73814.3,0.05,-1.67,-1.71,0,*70
1495814586.28,31794,16.13,73814.3,0.05,-1.67,-1.59,0,*7D
1495814587.46,31795,16.13,73814.5,0.05,-1.71,-1.67,0,*76
1495814588.63,31796,16.13,73814.5,0.05,-1.51,-1.51,0,*72
1495814589.81,31797,16.13,73814.0,0.05,-1.59,-1.71,0,*79
1495814590.99,31798,16.13,73818.3,0.05,-1.71,-1.67,0,*7B
1495814592.17,31799,16.13,73816.5,0.05,-1.67,-1.67,0,*7D
1495814593.34,31800,16.13,73814.5,0.05,-1.51,-1.51,0,*72
1495814594.51,31801,16.13,73816.5,0.05,-1.51,-1.51,0,*73
1495814595.68,31802,16.13,73818.3,0.05,-1.59,-1.59,0,*70
1495814596.89,31803,16.13,73822.3,0.07,-1.67,-1.75,0,*70
1495814598.11,31804,16.13,73820.5,0.07,-2.15,-2.11,0,*70
1495814599.35,31805,16.13,73816.3,0.07,-2.11,-2.15,0,*71
1495814600.57,31806,16.13,73816.5,0.05,-1.95,-1.91,0,*70
1495814601.74,31807,16.13,73810.8,0.05,-1.67,-1.59,0,*78
1495814602.92,31808,16.13,73812.5,0.05,-1.55,-1.55,0,*7A
1495814604.15,31809,16.13,73808.8,0.05,-1.43,-1.43,0,*7B
1495814605.34,31810,16.13,73812.3,0.05,-1.51,-1.43,0,*70
1495814606.6,31811,16.13,73816.0,0.07,-1.47,-1.47,0,*70
1495814607.86,31812,16.13,73812.3,0.07,-1.47,-1.39,0,*7A
1495814609.06,31813,16.13,73808.3,0.07,-1.63,-1.51,0,*73
1495814610.27,31814,16.13,73808.3,0.07,-1.67,-1.67,0,*75
1495814611.48,31815,16.13,73808.8,0.07,-1.55,-1.51,0,*70
1495814612.65,31816,16.13,73808.3,0.09,-1.55,-1.55,0,*79
1495814613.85,31817,16.13,73812.5,0.09,-1.47,-1.51,0,*7F
1495814615.11,31818,16.13,73806.5,0.07,-1.47,-1.39,0,*70
1495814616.34,31819,16.13,73808.8,0.09,-1.39,-1.47,0,*7F
1495814617.51,31820,16.13,73810.0,0.09,-1.51,-1.51,0,*7C
1495814618.68,31821,16.13,73814.0,0.09,-1.55,-1.55,0,*7D
1495814619.89,31822,16.13,73818.8,0.07,-1.55,-1.63,0,*75
1495814621.09,31823,16.13,73824.5,0.07,-1.51,-1.55,0,*75
1495814622.32,31824,16.13,73820.8,0.09,-1.47,-1.39,0,*71
1495814623.58,31825,16.13,73816.5,0.07,-1.39,-1.39,0,*77
1495814624.81,31826,16.13,73820.0,0.09,-1.35,-1.39,0,*76
1495814626.07,31827,16.13,73820.5,0.07,-1.39,-1.47,0,*7C
1495814627.24,31828,16.13,73818.8,0.09,-1.55,-1.51,0,*70
1495814628.41,31829,16.13,73820.8,0.09,-1.55,-1.55,0,*75
1495814629.58,31830,16.13,73820.0,0.09,-1.55,-1.55,0,*7D
1495814630.79,31831,16.13,73820.3,0.09,-1.47,-1.51,0,*7B
1495814631.96,31832,16.13,73826.0,0.09,-1.63,-1.55,0,*7A
1495814633.16,31833,16.13,73828.0,0.07,-1.67,-1.75,0,*73
1495814634.34,31834,16.13,73824.5,0.09,-1.67,-1.75,0,*7A
1495814635.54,31835,16.13,73822.0,0.09,-1.39,-1.51,0,*76
1495814636.78,31836,16.13,73824.8,0.07,-1.47,-1.51,0,*72
1495814637.98,31837,16.13,73824.0,0.07,-1.51,-1.63,0,*75
1495814639.24,31838,16.13,73822.5,0.07,-1.91,-1.99,0,*73
1495814640.5,31839,16.13,73824.8,0.07,-1.99,-2.11,0,*79
1495814641.76,31840,16.13,73820.8,0.07,-1.99,-2.03,0,*74
1495814642.98,31841,16.13,73826.3,0.05,-1.95,-2.03,0,*7B
1495814644.22,31842,16.13,73816.8,0.05,-2.47,-2.55,0,*77
1495814645.44,31843,16.13,73820.5,0.05,-2.07,-2.03,0,*71
1495814646.67,31844,16.13,73822.0,0.05,-1.91,-1.91,0,*72
1495814647.85,31845,16.13,73820.5,0.01,-1.71,-1.75,0,*73
1495814649.02,31846,16.13,73822.8,0.05,-1.55,-1.55,0,*70
1495814650.19,31847,16.13,73820.0,0.05,-1.55,-1.55,0,*71
1495814651.39,31848,16.13,73820.0,0.05,-1.43,-1.55,0,*79
1495814652.6,31849,16.13,73824.8,0.05,-1.33,-1.39,0,*75
1495814653.83,31850,16.13,73826.8,0.05,-1.39,-1.43,0,*7A
1495814655.07,31851,16.13,73820.0,0.05,-1.39,-1.43,0,*7B
1495814656.23,31852,16.13,73816.0,0.05,-1.51,-1.55,0,*71
1495814657.41,31853,16.13,73820.0,0.05,-1.51,-1.51,0,*74
1495814658.63,31854,16.13,73822.8,0.05,-1.43,-1.43,0,*73
1495814659.86,31855,16.13,73824.3,0.01,-1.35,-1.43,0,*77
1495814661.04,31856,16.13,73826.5,0.05,-1.33,-1.33,0,*71
1495814662.21,31857,16.13,73826.0,0.05,-1.33,-1.33,0,*70
1495814663.42,31858,16.13,73824.0,0.05,-1.33,-1.39,0,*75
1495814664.62,31859,16.13,73818.0,0.07,-1.55,-1.55,0,*7C
1495814665.88,31860,16.13,73816.5,0.07,-1.39,-1.47,0,*7F
1495814667.12,31861,16.13,73820.8,0.07,-1.29,-1.35,0,*7A
1495814668.37,31862,16.13,73820.0,0.07,-1.35,-1.35,0,*74
1495814669.58,31863,16.13,73830.8,0.07,-1.25,-1.25,0,*75
1495814670.78,31864,16.13,73828.0,0.07,-1.25,-1.29,0,*7E
1495814671.99,31865,16.13,73826.0,0.09,-1.29,-1.35,0,*70
1495814673.19,31866,16.13,73820.5,0.07,-1.55,-1.51,0,*74
1495814674.39,31867,16.13,73822.5,0.09,-1.29,-1.35,0,*72
1495814675.63,31868,16.13,73824.8,0.07,-1.25,-1.35,0,*7F
1495814676.86,31869,16.13,73832.8,0.07,-1.29,-1.35,0,*72
1495814678.12,31870,16.13,73828.3,0.07,-1.39,-1.47,0,*7E
1495814679.33,31871,16.13,73828.5,0.07,-1.67,-1.67,0,*76
1495814680.54,31872,16.13,73834.0,0.07,-1.55,-1.67,0,*74
1495814681.8,31873,16.13,73830.0,0.07,-1.99,-2.03,0,*74
1495814683.06,31874,16.13,73828.3,0.07,-1.91,-1.99,0,*7B
1495814684.29,31875,16.13,73814.5,0.09,-2.51,-2.51,0,*7C
1495814685.55,31876,16.13,73818.5,0.07,-2.11,-2.03,0,*72
1495814686.75,31877,16.13,73820.0,0.07,-1.75,-1.75,0,*70
1495814687.93,31878,16.13,73822.0,0.05,-1.55,-1.59,0,*71
1495814689.1,31879,16.13,73824.5,0.05,-1.55,-1.67,0,*7D
1495814690.34,31880,16.13,73830.8,0.07,-1.47,-1.51,0,*7F
1495814691.51,31881,16.13,73828.3,0.05,-1.55,-1.51,0,*7F
1495814692.77,31882,16.13,73830.3,0.07,-2.03,-2.03,0,*7A
1495814694.03,31883,16.13,73832.0,0.07,-1.91,-1.99,0,*73
1495814695.23,31884,16.13,73824.3,0.07,-2.27,-2.27,0,*7C
1495814696.46,31885,16.13,73824.5,0.09,-1.99,-2.03,0,*73
1495814697.64,31886,16.13,73832.8,0.05,-1.67,-1.67,0,*7C
1495814698.84,31887,16.13,73836.0,0.07,-1.51,-1.55,0,*7B
1495814700.03,31888,16.13,73826.5,0.07,-2.39,-2.43,0,*7D
1495814701.26,31889,16.13,73822.8,0.07,-2.67,-2.91,0,*78
1495814702.46,31890,16.13,73828.8,0.05,-2.71,-2.83,0,*76
1495814703.63,31891,16.13,73834.5,0.01,-2.83,-2.95,0,*79
1495814704.82,31892,16.13,73832.3,0.01,-2.95,-2.95,0,*7D
1495814705.99,31893,16.13,73814.5,0.01,-3.19,-3.07,0,*73
1495814707.23,31894,16.13,73804.8,-0.03,-2.55,-2.51,0,*50
1495814708.44,31895,16.13,73814.3,-0.01,-2.19,-2.19,0,*57
1495814709.68,31896,16.13,73820.5,-0.01,-1.99,-2.19,0,*5F
1495814710.89,31897,16.13,73824.0,-0.01,-2.23,-2.31,0,*56
1495814712.1,31898,16.13,73822.8,-0.01,-2.23,-2.31,0,*59
1495814713.28,31899,16.13,73822.5,-0.03,-2.35,-2.35,0,*59
1495814714.45,31900,16.13,73826.8,-0.03,-2.35,-2.27,0,*5B
1495814715.67,31901,16.13,73820.8,-0.01,-2.31,-2.31,0,*5B
1495814716.93,31902,16.13,73816.8,-0.01,-2.63,-2.63,0,*58
1495814718.11,31903,16.13,73824.3,-0.03,-2.35,-2.35,0,*5B
1495814719.29,31904,16.13,73828.0,-0.03,-2.27,-2.27,0,*5C
1495814720.47,31905,16.13,73828.5,-0.03,-2.35,-2.39,0,*51
1495814721.65,31906,16.13,73822.3,-0.03,-2.99,-3.03,0,*5C
1495814722.92,31907,16.13,73826.3,-0.05,-2.63,-2.55,0,*5C
1495814724.12,31908,16.13,73826.0,-0.05,-2.79,-2.79,0,*56
1495814725.3,31909,16.13,73824.5,-0.07,-2.87,-2.87,0,*55
1495814726.5,31910,16.13,73820.5,-0.07,-2.95,-2.95,0,*5D
1495814727.68,31911,16.13,73816.5,-0.07,-2.83,-2.83,0,*5C
1495814728.91,31912,16.13,73812.0,-0.07,-2.67,-2.59,0,*52
1495814730.15,31913,16.13,73814.8,-0.09,-2.23,-2.07,0,*56
1495814731.39,31914,16.13,73818.5,-0.11,-2.11,-2.11,0,*6E
1495814732.63,31915,16.13,73822.5,-0.11,-1.99,-1.95,0,*63
1495814733.87,31916,16.13,73818.3,-0.09,-1.83,-1.75,0,*5C
1495814735.08,31917,16.13,73818.0,-0.09,-1.75,-1.75,0,*54
1495814736.34,31918,16.13,73818.5,-0.09,-1.87,-1.87,0,*5B
1495814737.57,31919,16.13,73810.0,-0.11,-1.87,-1.95,0,*60
1495814738.84,31920,16.13,73812.0,-0.09,-1.99,-2.07,0,*54
1495814740.02,31921,16.13,73814.8,-0.07,-2.27,-2.27,0,*5F
1495814741.29,31922,16.13,73814.8,-0.09,-2.11,-2.11,0,*52
1495814742.48,31923,16.13,73814.5,-0.11,-2.35,-2.23,0,*6D
1495814743.69,31924,16.13,73808.8,-0.09,-2.35,-2.35,0,*54
1495814744.87,31925,16.13,73808.5,-0.11,-2.43,-2.35,0,*6D
1495814746.06,31926,16.13,73810.3,-0.11,-2.19,-2.23,0,*66
1495814747.25,31927,16.13,73810.8,-0.11,-2.31,-2.35,0,*6A
1495814748.44,31928,16.13,73810.0,-0.11,-2.19,-2.23,0,*68
1495814749.71,31929,16.13,73806.8,-0.09,-1.87,-1.99,0,*56
1495814750.91,31930,16.13,73806.5,-0.11,-1.71,-1.71,0,*68
1495814752.09,31931,16.13,73804.5,-0.11,-1.59,-1.67,0,*64
1495814753.33,31932,16.13,73804.3,-0.11,-1.47,-1.47,0,*6A
1495814754.52,31933,16.13,73802.0,-0.11,-1.55,-1.55,0,*6B
1495814755.72,31934,16.13,73806.3,-0.09,-1.59,-1.59,0,*55
1495814756.96,31935,16.13,73806.5,-0.09,-1.47,-1.55,0,*57
1495814758.22,31936,16.13,73804.5,-0.09,-1.35,-1.35,0,*57
1495814759.4,31937,16.13,73806.3,-0.07,-1.67,-1.63,0,*5C
1495814760.59,31938,16.13,73808.5,-0.07,-1.67,-1.55,0,*56
1495814761.77,31939,16.13,73810.8,-0.07,-1.51,-1.51,0,*56
1495814763.03,31940,16.13,73816.8,-0.05,-1.39,-1.47,0,*53
1495814764.25,31941,16.13,73816.3,-0.07,-1.33,-1.39,0,*53
1495814765.43,31942,16.13,73818.5,-0.07,-1.33,-1.33,0,*5A
1495814766.61,31943,16.13,73818.5,-0.07,-1.51,-1.51,0,*5B
1495814767.81,31944,16.13,73818.3,-0.05,-1.51,-1.51,0,*5E
1495814769.07,31945,16.13,73820.0,-0.05,-1.35,-1.39,0,*53
1495814770.3,31946,16.13,73814.3,-0.05,-1.51,-1.47,0,*5B
1495814771.57,31947,16.13,73814.5,-0.05,-1.39,-1.47,0,*54
1495814772.78,31948,16.13,73812.8,-0.05,-1.29,-1.29,0,*52
1495814774.05,31949,16.13,73816.8,-0.05,-1.39,-1.47,0,*5A
1495814775.25,31950,16.13,73814.5,-0.05,-1.59,-1.59,0,*5B
1495814776.43,31951,16.13,73814.0,-0.03,-1.59,-1.67,0,*51
1495814777.66,31952,16.13,73810.5,-0.03,-1.91,-1.87,0,*58
1495814778.89,31953,16.13,73808.3,-0.03,-2.03,-2.11,0,*5D
1495814780.13,31954,16.13,73808.3,-0.03,-2.03,-2.03,0,*59
1495814781.36,31955,16.13,73808.8,-0.03,-2.51,-2.55,0,*5C
1495814782.6,31956,16.13,73800.8,-0.07,-2.67,-2.71,0,*58
1495814783.83,31957,16.13,73804.8,-0.05,-1.91,-1.79,0,*5A
1495814785.04,31958,16.13,73800.0,-0.07,-1.83,-1.79,0,*54
1495814786.28,31959,16.13,73802.3,-0.07,-1.43,-1.39,0,*5D
1495814787.55,31960,16.13,73800.3,-0.05,-1.39,-1.35,0,*54
1495814788.81,31961,16.13,73794.8,-0.05,-1.39,-1.47,0,*50
1495814789.99,31962,16.13,73800.3,-0.07,-1.55,-1.55,0,*58
1495814791.26,31963,16.13,73810.0,-0.05,-1.39,-1.35,0,*57
1495814792.46,31964,16.13,73806.5,-0.05,-1.51,-1.51,0,*5C
1495814793.67,31965,16.13,73808.5,-0.05,-1.51,-1.51,0,*5D
1495814794.87,31966,16.13,73828.0,-0.05,-1.51,-1.51,0,*5E
1495814796.04,31967,16.13,73818.0,-0.03,-1.51,-1.59,0,*51
1495814797.26,31968,16.13,73812.0,-0.05,-1.67,-1.67,0,*50
1495814798.46,31969,16.13,73820.5,-0.05,-1.67,-1.63,0,*55
1495814799.73,31970,16.13,73816.5,-0.01,-1.43,-1.43,0,*5D
1495814800.96,31971,16.13,73812.8,-0.03,-1.47,-1.47,0,*5E
1495814802.19,31972,16.13,73814.8,-0.01,-1.43,-1.33,0,*58
1495814803.45,31973,16.13,73812.0,-0.01,-1.43,-1.43,0,*5E
1495814804.69,31974,16.13,73810.3,-0.01,-1.47,-1.59,0,*56
1495814805.89,31975,16.13,73808.8,-0.01,-1.55,-1.63,0,*5D
1495814807.16,31976,16.13,73806.0,-0.01,-1.43,-1.47,0,*5F
1495814808.42,31977,16.13,73800.0,-0.01,-1.47,-1.43,0,*5E
1495814809.68,31978,16.13,73804.8,-0.01,-1.47,-1.47,0,*55
1495814810.89,31979,16.13,73810.5,-0.01,-1.63,-1.63,0,*54
1495814812.1,31980,16.13,73818.0,-0.01,-1.55,-1.63,0,*57
1495814813.3,31981,16.13,73812.5,-0.01,-2.19,-2.19,0,*53
1495814814.51,31982,16.13,73808.0,-0.01,-2.19,-2.23,0,*59
1495814815.77,31983,16.13,73808.8,-0.01,-1.83,-1.95,0,*56
1495814817.0,31984,16.13,73814.0,-0.03,-1.91,-1.99,0,*5C
1495814818.21,31985,16.13,73814.0,-0.03,-2.43,-2.55,0,*52
1495814819.44,31986,16.13,73814.0,-0.03,-2.55,-2.67,0,*57
1495814820.62,31987,16.13,73816.8,-0.03,-2.35,-2.35,0,*57
1495814821.83,31988,16.13,73820.8,-0.05,-2.23,-2.15,0,*5B
1495814823.09,31989,16.13,73816.0,-0.05,-2.75,-2.75,0,*5F
1495814824.29,31990,16.13,73822.3,-0.05,-2.91,-2.91,0,*57
1495814825.48,31991,16.13,73812.3,-0.07,-2.99,-2.99,0,*54
1495814826.71,31992,16.13,73810.0,-0.07,-2.59,-2.59,0,*57
1495814827.89,31993,16.13,73810.8,-0.07,-2.43,-2.39,0,*5B
1495814829.1,31994,16.13,73798.3,-0.09,-2.43,-2.43,0,*5F
1495814830.37,31995,16.13,73784.0,-0.09,-2.07,-2.07,0,*5E
1495814831.63,31996,16.13,73820.0,-0.09,-2.07,-2.07,0,*5D
1495814832.84,31997,16.13,73818.5,-0.09,-1.75,-1.75,0,*5C
1495814834.06,31998,16.13,73818.3,-0.09,-1.71,-1.75,0,*57
1495814835.32,31999,16.13,73814.5,-0.09,-1.87,-1.83,0,*56
1495814836.53,32000,16.13,73808.3,-0.09,-1.75,-1.75,0,*58
1495814837.78,32001,16.13,73808.0,-0.11,-1.87,-1.99,0,*6F
1495814839.05,32002,16.13,73812.5,-0.09,-1.99,-1.99,0,*5A
1495814840.29,32003,16.13,73818.3,-0.09,-1.83,-1.75,0,*52
1495814841.5,32004,16.13,73822.0,-0.09,-1.75,-1.75,0,*5C
1495814842.68,32005,16.13,73822.5,-0.07,-1.63,-1.63,0,*53
1495814843.86,32006,16.13,73816.3,-0.07,-1.55,-1.55,0,*50
1495814845.07,32007,16.13,73818.5,-0.05,-1.67,-1.67,0,*53
1495814846.26,32008,16.13,73814.0,-0.07,-1.55,-1.71,0,*58
1495814847.52,32009,16.13,73822.3,-0.09,-1.83,-1.83,0,*51
1495814848.74,32010,16.13,73826.0,-0.09,-1.71,-1.75,0,*5D
1495814849.93,32011,16.13,73826.0,-0.07,-1.55,-1.63,0,*53
1495814851.12,32012,16.13,73824.5,-0.07,-1.71,-1.71,0,*55
1495814852.36,32013,16.13,73822.5,-0.05,-2.15,-1.99,0,*51
1495814853.59,32014,16.13,73826.3,-0.07,-2.03,-2.03,0,*53
1495814854.82,32015,16.13,73826.3,-0.07,-1.83,-1.95,0,*55
1495814856.05,32016,16.13,73830.0,-0.07,-1.95,-1.91,0,*55
1495814857.27,32017,16.13,73824.3,-0.05,-1.67,-1.67,0,*52
1495814858.45,32018,16.13,73822.5,-0.07,-1.79,-1.71,0,*57
1495814859.69,32019,16.13,73820.3,-0.07,-1.91,-1.91,0,*5E
1495814860.87,32020,16.13,73826.3,-0.07,-1.79,-1.79,0,*54
1495814862.08,32021,16.13,73824.8,-0.05,-1.79,-1.79,0,*57
1495814863.29,32022,16.13,73824.0,-0.05,-1.75,-1.75,0,*54
1495814864.52,32023,16.13,73816.0,-0.07,-1.83,-1.83,0,*57
1495814865.74,32024,16.13,73814.0,-0.07,-1.71,-1.83,0,*5D
1495814866.93,32025,16.13,73818.0,-0.07,-1.71,-1.79,0,*59
1495814868.11,32026,16.13,73812.3,-0.07,-2.39,-2.43,0,*5F
1495814869.37,32027,16.13,73812.8,-0.05,-2.55,-2.75,0,*53
1495814870.6,32028,16.13,73816.0,-0.07,-2.67,-2.67,0,*5C
1495814871.78,32029,16.13,73814.0,-0.07,-3.15,-3.15,0,*5D
1495814873.03,32030,16.13,73816.3,-0.09,-3.59,-3.75,0,*55
1495814874.26,32031,16.13,73812.5,-0.11,-3.63,-3.63,0,*63
1495814875.52,32032,16.13,73814.0,-0.13,-3.55,-3.63,0,*67
1495814876.74,32033,16.13,73810.3,-0.13,-3.27,-3.27,0,*63
1495814877.98,32034,16.13,73804.8,-0.15,-3.43,-3.63,0,*60
1495814879.17,32035,16.13,73806.5,-0.15,-3.35,-3.27,0,*60
1495814880.38,32036,16.13,73814.5,-0.21,-2.83,-2.71,0,*6A
1495814881.61,32037,16.13,73810.0,-0.17,-2.95,-3.03,0,*6D
1495814882.79,32038,16.13,73808.0,-0.21,-3.15,-3.15,0,*69
1495814884.03,32039,16.13,73808.5,-0.21,-3.59,-3.59,0,*68
1495814885.22,32040,16.13,73806.0,-0.25,-3.23,-3.31,0,*61
1495814886.41,32041,16.13,73806.5,-0.25,-2.99,-2.87,0,*6C
1495814887.65,32042,16.13,73804.0,-0.25,-2.63,-2.59,0,*69
1495814888.85,32043,16.13,73800.5,-0.25,-2.31,-2.23,0,*62
1495814890.04,32044,16.13,73808.0,-0.25,-2.23,-2.19,0,*6F
1495814891.23,32045,16.13,73806.5,-0.25,-2.43,-2.35,0,*66
1495814892.42,32046,16.13,73808.8,-0.29,-2.99,-2.99,0,*68
1495814893.61,32047,16.13,73806.0,-0.29,-2.91,-2.91,0,*69
1495814894.85,32048,16.13,73806.5,-0.29,-2.67,-2.63,0,*62
1495814896.1,32049,16.13,73810.5,-0.29,-2.51,-2.51,0,*67
1495814897.31,32050,16.13,73806.3,-0.31,-2.39,-2.43,0,*6B
1495814898.52,32051,16.13,73810.3,-0.31,-2.39,-2.43,0,*6A
1495814899.73,32052,16.13,73804.5,-0.31,-2.39,-2.31,0,*6C
1495814900.94,32053,16.13,73804.8,-0.31,-2.91,-2.91,0,*65
1495814902.14,32054,16.13,73806.3,-0.33,-2.95,-2.99,0,*6C
1495814903.34,32055,16.13,73804.3,-0.33,-2.87,-2.95,0,*62
1495814904.53,32056,16.13,73802.3,-0.33,-2.79,-2.83,0,*67
1495814905.73,32057,16.13,73798.8,-0.33,-2.95,-2.95,0,*63
1495814906.92,32058,16.13,73794.8,-0.33,-2.83,-2.83,0,*6C
1495814908.11,32059,16.13,73792.8,-0.33,-2.87,-2.87,0,*6D